CZ-6A DEB, 56249

Orbit data source: Space-Track

CZ-6A DEB, 56249 is space debris in SSO originally from a launch on Fri, 11 Nov 2022 UTC launched from the Taiyaun Space Center, China (TSC). Debris objects in space refer to the collection of defunct objects orbiting the Earth. Examples of debris include non-operational satellites, rocket bodies, and fragments generated from explosions, collisions, or faulty payload assembly.

Loading next visibility...
Identifier
56249, 2022-151ABR
Orbit
SSO
Country
Flag of CNCN / PRC
Related business
Manufacturer
SAST
Mission
Spacecraft
Bus & Motor
Unknown
Mass
Unknown
Launch date (UTC)
2022-11-11 (3 years ago)
Launch vehicle
Unknown
Launch site
Taiyaun Space Center, China (TSC)
Object type
Payload
Rocket body
Debris
Shape & HBR
Unknown shape, 0.1 m
Radar Cross Section
Small (<0.1 m²)

Expand to show TLE details & history
Last TLE update: 2 days ago

TLE from 2 days ago
0 CZ-6A DEB
1 56249U 22151ABR 25348.49274977  .00002304  00000-0  99875-3 0  9998
2 56249  98.7757   4.5612 0046234 153.4414 206.9148 14.24642743148291
Epoch: 2025-12-14T11:49Z
TLE epoch observation values (Epoch: 2025-12-14T11:49:33.580Z)
Latitude
Longitude
103.7664°
Altitude
842.283 km
Speed
7.416 km/s
True Right ascension
00h 18m 14s
True Declination
0° 00' 00"
Sunlit
Object was in daylight at epoch
Visualization orbit readout
Latitude
Unknown
Longitude
Unknown
Altitude
Unknown
Speed
Unknown
Apparent Right ascension
Unknown
Apparent Declination
Unknown
Sunlit
N/A
Visualization observer readout
Local Sidereal Time
06:13:42
Azimuth
Unknown
Elevation
Unknown
Doppler factor
Unknown
Orbital elements
Apogee altitude
840.069 km
Perigee altitude
773.63 km
Semi-major axis
7,184.987 km
Eccentricity
0.00462
Inclination
98.7757°
RAAN
4.5612°
Arg. of periapsis
153.4414°
True anomaly
206.67621°
Mean anomaly
206.9148°
Eccentric anomaly
206.79538°
Mean motion
3.56373 °/min
Orbital period
101.02 mins
BSTAR
0.00099875
Loading maneuver chart data...
Computing Atmospheric mass density...
Loading historical data...
Loading historical data...
Loading historical data...
Loading historical data...
Loading historical data...
Loading historical data...
Loading historical data...

Documentation

Showing up to 5 results
|